STARLINK-5497 (55629 NORAD) Tracking and Keplerian Element Data

This shows tracking and keplerian element data for the satellite.

Feedback or suggestion? Click here.




ElementValue
Catalog55629
NameSTARLINK-5497
Epoch Orbit625
Epoch Day85.25001157
Epoch Year2023
RAAN48.2118
Inclination70.0031
Eccentricity0.0003353
Argument of Perigee278.7395
Mean Anonmoly158.7442
Mean Motion15.47249651
Decay Rate-0.01176658
L11 55629U 23021B 23085.25001157 -.01176658 00000+0 -25226-1 0 9997
L22 55629 70.0031 48.2118 0003353 278.7395 158.7442 15.47249651 6257



Live tracking and technical data element details for STARLINK-5497 (NORAD 55629). STARLINK-5497 can be tracked NOW for your location showing map with azimuth and elevation plus other details from your city location.







IsCatalogInMostPopularTable: catalog: 55629, numindb: 4
Update: records affected: 1



GetName: 55629 STARLINK-5497

Hit Count: updated at: Tue, 28 Mar 2023 01:44:36 GMT